Flag for Cameroon Weather past 2 weeks in Douala, Cameroon

Now
75 °F

Passing clouds.


Feels Like: 73 °F
Forecast: 73 / 82 °F
Wind: No wind

Location: Douala Obs.

Current Time: Aug 28, 2015 at 6:59:35 AM

Latest Report: Aug 28, 2015 at 6:00 AM


Visibility: 5 mi

Pressure: 29.86 "Hg

Humidity: 100%

Dew point: 75 °F

Location of DoualaLocation

Historic Weather in Douala — Graph

°F

Douala temperature yesterday

Maximum temperature yesterday: 79 °F (at 4:00 PM)
Minimum temperature yesterday: 75 °F (at 5:00 AM)
Average temperature yesterday: 77 °F

Past Weeks' High & Low Weather Summary

 TemperatureHumidityPressure
High84 °F (Aug 19, 2:00 PM)100% (Aug 13, 5:00 AM)30.01 "Hg (Aug 13, 5:00 AM)
Low75 °F (Aug 13, 5:00 AM)66% (Aug 21, 2:00 PM)29.80 "Hg (Aug 22, 5:00 PM)
Average78 °F92%29.91 "Hg
* Reported Aug 13 5:00 AM — Aug 28 5:00 AM, Douala, Weather by CustomWeather, © 2015

Note: Actual official high and low records may vary slightly from our data, if they occured in-between our weather recording intervals... More about our weather records

Advertising

Douala weather history for previous 24 hours

 ConditionsComfort  
Time TempWeatherWind HumidityBarometerVisibility
5:00 AM
Fri, Aug 28
75 °FPartly cloudy.No wind100%29.86 "Hg4 mi
4:00 AM75 °FPartly cloudy.2 mph100%29.86 "Hg4 mi
3:00 AM75 °FPassing clouds.5 mph100%29.86 "Hg4 mi
2:00 AM75 °FDrizzle. Mostly cloudy.No wind100%29.89 "Hg4 mi
1:00 AM77 °FDrizzle. Mostly cloudy.No wind94%29.92 "Hg4 mi
12:00 AM77 °FDrizzle. Mostly cloudy.No wind94%29.92 "Hg4 mi
11:00 PM
Thu, Aug 27
77 °FPassing clouds.2 mph94%29.92 "Hg4 mi
10:00 PM77 °FPassing clouds.2 mph94%29.92 "Hg4 mi
9:00 PM77 °FPassing clouds.No wind89%29.89 "Hg4 mi
8:00 PM77 °FPassing clouds.No wind94%29.89 "HgN/A
7:00 PM77 °FPartly cloudy.No wind89%29.86 "HgN/A
6:00 PM79 °FBroken clouds.12 mph84%29.86 "HgN/A
5:00 PM79 °FBroken clouds.12 mph89%29.83 "HgN/A
4:00 PM79 °FPartly sunny.12 mph89%29.83 "HgN/A
3:00 PM77 °FLight rain. More clouds than sun.9 mph94%29.83 "HgN/A
2:00 PM77 °FLight rain. More clouds than sun.5 mph94%29.86 "Hg4 mi
1:00 PM77 °FThunderstorms. Cloudy.7 mph94%29.89 "Hg1 mi
12:00 PM75 °FThunderstorms. Cloudy.5 mph100%29.92 "Hg2 mi
11:00 AM75 °FThunderstorms. Cloudy.5 mph100%29.95 "Hg1 mi
10:00 AM75 °FThunderstorms. Cloudy.8 mph100%29.95 "Hg1 mi
9:00 AM75 °FDrizzle. Cloudy.2 mph100%29.92 "Hg5 mi
8:00 AM75 °FThunderstorms. Cloudy.6 mph94%29.92 "Hg4 mi
7:00 AM75 °FThunderstorms. Cloudy.5 mph100%29.89 "Hg4 mi
6:00 AM77 °FThunderstorms. Overcast.5 mph94%29.86 "Hg1 mi
Weather by CustomWeather, © 2015

See weather overviewHow to use our weather pages